Regional Weather Roundup
Issued by NWS

Home | Current Version | Previous Version | Text Only | Print | Product List | Glossary Off
Versions: 1 2 3 4 5 6 7 8 9 10 11 12 13 14 15 16 17 18 19 20 21 22 23 24 25 26 27 28 29 30 31 32 33 34 35 36 37 38 39 40 41 42 43 44 45 46 47 48 49 50

000
ASUS43 KIND 211359
RWRIN

WEATHER ROUNDUP FOR INDIANA
NATIONAL WEATHER SERVICE INDIANAPOLIS IN
1000 AM EDT MON APR 21 2014

NOTE: "FAIR" INDICATES FEW OR NO CLOUDS BELOW 12,000 FEET WITH NO
SIGNIFICANT WEATHER AND/OR OBSTRUCTIONS TO VISIBILITY.

* - STATION DOES NOT REPORT WEATHER SUCH AS PRECIPITATION OR FOG.

+ - STATION NOT QUALITY CONTROLLED BY THE NATIONAL WEATHER SERVICE.
    USE DATA WITH CAUTION...ESPECIALLY DEWPOINT AND RELATIVE
    HUMIDITY OBSERVATIONS.

INZ001>003-010>013-019-020-211500-
NORTHWEST INDIANA

CITY           SKY/WX    TMP DP  RH WIND       PRES   REMARKS
GARY /AIRPORT/ PTSUNNY   66  41  39 S12       29.95F
VALPARAISO     PTSUNNY   64  41  42 S12       29.97F

$$

LMZ046-743>745-211500-
SOUTHERN LAKE MICHIGAN

STATION/POSITION TIME  TEMP WIND        PRES
                       AIR  DIR/SP/G
                 (UTC) (F)  (DEG/KT/KT) (MB)
MICHIGAN CITY    1300   62  160/ 13/ 19   N/A

$$

INZ004-005-014>016-021>024-211500-
NORTH CENTRAL INDIANA

CITY           SKY/WX    TMP DP  RH WIND       PRES   REMARKS
ELKHART        SUNNY     63  39  42 S7        29.99F
GOSHEN         PTSUNNY   68  43  40 SW10      29.99F
SOUTH BEND     CLOUDY    66  40  38 SW8       29.98F

$$

INZ006>009-017-018-025>027-211500-
NORTHEAST INDIANA

CITY           SKY/WX    TMP DP  RH WIND       PRES   REMARKS
ANGOLA *+      SUNNY     63  45  51 SW6       30.00F
FORT WAYNE     PTSUNNY   66  41  40 SW8       30.02F

$$

INZ028-029-035-036-043>045-051>053-211500-
WEST CENTRAL INDIANA

CITY           SKY/WX    TMP DP  RH WIND       PRES   REMARKS
GREENCASTLE +  PTSUNNY   64  43  45 S7        30.04S
LAFAYETTE      CLOUDY    65  44  46 S7        30.00F
TERRE HAUTE    CLOUDY    63  48  58 S6        30.02F

$$

INZ030>032-037>040-046>048-054>057-064-065-211500-
CENTRAL INDIANA

CITY           SKY/WX    TMP DP  RH WIND       PRES   REMARKS
ANDERSON       SUNNY     64  41  42 S8        30.04F
COLUMBUS       SUNNY     63  45  51 S3        30.05F
INDIANAPOLIS   PTSUNNY   65  44  46 S7        30.03F
-EAGLE CREEK   PTSUNNY   65  41  41 S5        30.03F
KOKOMO *+      MOSUNNY   63  45  51 S9        30.02S
MT COMFORT *+  MOSUNNY   66  43  42 S8        30.04F
SHELBYVILLE    MOSUNNY   65  46  50 S6        30.04F

$$

INZ033-034-041-042-049-050-058-059-211500-
EAST CENTRAL INDIANA

CITY           SKY/WX    TMP DP  RH WIND       PRES   REMARKS
MUNCIE         SUNNY     65  41  41 SW7       30.03F

$$

INZ060-061-067>069-081>083-085>088-211500-
SOUTHWEST INDIANA

CITY           SKY/WX    TMP DP  RH WIND       PRES   REMARKS
EVANSVILLE     PTSUNNY   66  44  45 SW7       30.06S
HUNTINGBURG *+ CLOUDY    63  46  55 S6        30.06F

$$

INZ062-063-066-070>080-084-089>092-211500-
SOUTH CENTRAL AND SOUTHEAST INDIANA

CITY           SKY/WX    TMP DP  RH WIND       PRES   REMARKS
BLOOMINGTON    PTSUNNY   65  46  50 CALM      30.04F

$$




USA.gov is the U.S. government's official web portal to all federal, state and local government web resources and services.